Weather History for K8D3 - April, 2013

Change the Weather History Date:

Wednesday, April 3, 2013

  Actual Average Record
Temperature  
Mean Temperature 44 °F 38 °F  
Max Temperature 52 °F 49 °F 75 °F (1991)
Min Temperature 35 °F 28 °F 0 °F (1975)
Degree Days  
Heating Degree Days 21 27  
Month to date heating degree days 106 82  
Since 1 July heating degree days 7934 7424  
Cooling Degree Days 0 0  
Month to date cooling degree days 0 0  
Year to date cooling degree days 0 0  
Moisture  
Dew Point 28 °F    
Average Humidity 72    
Maximum Humidity 92    
Minimum Humidity 52    
Precipitation  
Precipitation 0.00 in 0.04 in 1.14 in (1956)
Month to date precipitation 0.00 0.10  
Year to date precipitation 3.35 2.08  
Snow  
Snow 0.00 in - - ()
Month to date snowfall 0.0  
Since 1 July snowfall 42.1  
Snow Depth -    
Sea Level Pressure  
Sea Level Pressure 30.12 in    
Wind  
Wind Speed 12 mph (SSW)    
Max Wind Speed 25 mph    
Max Gust Speed 30 mph    
T = Trace of Precipitation, MM = Missing Value Source: NWS Daily Summary

Daily Weather History Graph

Daily Weather History Graph

Search for Another Location

Airport or City:

Trip Planner

Search our weather history database for the weather conditions in past years. The results will help you decide how hot, cold, wet, or windy it might be!

Date:

Astronomy

Apr. 03, 2013 Rise Set
Actual Time 7:03 AM CDT 7:59 PM CDT
Civil Twilight 6:33 AM CDT 8:29 PM CDT
Nautical Twilight 5:57 AM CDT 9:05 PM CDT
Astronomical Twilight 5:19 AM CDT 9:43 PM CDT
Moon 3:05 AM CDT (4/3) 12:54 PM CDT (4/3)
Length of Visible Light 13h 55m
Length of Day
12h 55m
Last Quarter, 44% of the Moon is Illuminated
Apr 3
Last Quarter
Apr 10
New
Apr 18
First Quarter
Apr 25
Full
May 2
Last Quarter

Hourly Weather History & Observations

Time (CDT) Temp. Windchill Dew Point Humidity Pressure Visibility Wind Dir Wind Speed Gust Speed Precip Events Conditions
12:56 AM 19.0 °F - 16.0 °F 88% 30.40 in - Calm Calm - N/A   Unknown
1:56 AM 19.0 °F 10.0 °F 16.0 °F 88% 30.39 in - SSW 6.9 mph - N/A   Unknown
2:56 AM 19.0 °F 10.0 °F 16.0 °F 88% 30.37 in - South 6.9 mph - N/A   Unknown
3:56 AM 19.9 °F 9.3 °F 16.0 °F 85% 30.34 in - South 9.2 mph - N/A   Unknown
4:56 AM 19.0 °F 9.0 °F 16.0 °F 88% 30.34 in - South 8.1 mph - N/A   Unknown
5:56 AM 19.9 °F 8.6 °F 18.0 °F 92% 30.32 in - South 10.4 mph - N/A   Unknown
6:56 AM 19.9 °F 8.6 °F 18.0 °F 92% 30.31 in - SSE 10.4 mph - N/A   Unknown
7:56 AM 21.9 °F 9.8 °F 19.0 °F 89% 30.30 in - South 12.7 mph - N/A   Unknown
8:56 AM 25.0 °F 13.6 °F 21.9 °F 88% 30.28 in - South 12.7 mph - N/A   Unknown
9:56 AM 28.9 °F - 24.1 °F 82% 30.24 in - North - - N/A   Unknown
10:56 AM - - - N/A% 30.15 in - North - - 0.01 in   Unknown
12:56 PM 37.9 °F 28.2 °F 30.9 °F 76% 30.08 in - South 18.4 mph - N/A   Unknown
1:56 PM 39.9 °F 30.8 °F 32.0 °F 73% 30.04 in - South 18.4 mph - N/A   Unknown
2:56 PM 43.0 °F 36.8 °F 35.1 °F 74% 30.02 in - SSE 11.5 mph - N/A   Unknown
3:56 PM 44.1 °F 36.5 °F 36.0 °F 73% 29.98 in - South 17.3 mph - N/A   Unknown
4:56 PM 46.0 °F 39.9 °F 37.9 °F 73% 29.95 in - SSE 13.8 mph - N/A   Unknown
5:56 PM 46.0 °F 41.0 °F 39.0 °F 76% 29.91 in - South 10.4 mph - N/A   Unknown
6:56 PM 45.0 °F 41.2 °F 37.9 °F 76% 29.89 in - South 6.9 mph - N/A   Unknown
7:56 PM 46.0 °F 39.6 °F 36.0 °F 68% 29.86 in - South 15.0 mph - N/A   Unknown
8:56 PM 50.0 °F - 33.1 °F 52% 29.86 in - WSW 17.3 mph 28.8 mph N/A   Unknown
9:48 PM 48.2 °F - 33.8 °F 58% 29.94 in - NNW 18.4 mph 25.3 mph N/A   Unknown
9:56 PM 45.0 °F 37.6 °F 35.1 °F 68% 29.95 in - NNW 17.3 mph 29.9 mph N/A   Unknown
10:56 PM 39.9 °F 31.8 °F 34.0 °F 79% 30.00 in - NNW 15.0 mph - N/A   Unknown
11:56 PM 37.0 °F 28.9 °F 33.1 °F 86% 30.06 in - NNW 12.7 mph - N/A   Unknown